Year,Month,Day,Hour,Minute,Value (Times are PST for windspeed in km/hr)
2020,06,27,00,00,0.00
2020,06,27,00,01,0.00
2020,06,27,00,02,0.00
2020,06,27,00,03,0.00
2020,06,27,00,04,0.00
2020,06,27,00,05,0.00
2020,06,27,00,06,0.00
2020,06,27,00,07,0.10
2020,06,27,00,08,0.00
2020,06,27,00,09,0.00
2020,06,27,00,10,0.00
2020,06,27,00,11,0.00
2020,06,27,00,12,0.00
2020,06,27,00,13,0.00
2020,06,27,00,14,0.00
2020,06,27,00,15,0.00
2020,06,27,00,16,0.00
2020,06,27,00,17,0.00
2020,06,27,00,18,0.00
2020,06,27,00,19,0.00
2020,06,27,00,20,0.00
2020,06,27,00,21,0.00
2020,06,27,00,22,0.00
2020,06,27,00,23,0.00
2020,06,27,00,24,0.00
2020,06,27,00,25,0.00
2020,06,27,00,26,0.00
2020,06,27,00,27,0.00
2020,06,27,00,28,0.00
2020,06,27,00,29,0.00
2020,06,27,00,30,0.00
2020,06,27,00,31,0.00
2020,06,27,00,32,0.00
2020,06,27,00,33,0.00
2020,06,27,00,34,0.00
2020,06,27,00,35,0.00
2020,06,27,00,36,0.00
2020,06,27,00,37,0.00
2020,06,27,00,38,0.00
2020,06,27,00,39,0.00
2020,06,27,00,40,0.00
2020,06,27,00,41,0.00
2020,06,27,00,42,0.00
2020,06,27,00,43,0.00
2020,06,27,00,44,0.00
2020,06,27,00,45,0.00
2020,06,27,00,46,0.00
2020,06,27,00,47,0.00
2020,06,27,00,48,0.00
2020,06,27,00,49,0.00
2020,06,27,00,50,0.00
2020,06,27,00,51,0.00
2020,06,27,00,52,0.00
2020,06,27,00,53,0.00
2020,06,27,00,54,0.00
2020,06,27,00,55,0.00
2020,06,27,00,56,0.00
2020,06,27,00,57,0.00
2020,06,27,00,58,0.00
2020,06,27,00,59,0.00
2020,06,27,01,00,0.00
2020,06,27,01,01,0.00
2020,06,27,01,02,0.00
2020,06,27,01,03,0.00
2020,06,27,01,04,0.00
2020,06,27,01,05,0.00
2020,06,27,01,06,0.00
2020,06,27,01,07,0.00
2020,06,27,01,08,0.00
2020,06,27,01,09,0.00
2020,06,27,01,10,0.00
2020,06,27,01,11,0.00
2020,06,27,01,12,0.00
2020,06,27,01,13,0.00
2020,06,27,01,14,0.00
2020,06,27,01,15,0.00
2020,06,27,01,16,0.50
2020,06,27,01,17,1.10
2020,06,27,01,18,0.10
2020,06,27,01,19,0.00
2020,06,27,01,20,0.00
2020,06,27,01,21,0.30
2020,06,27,01,22,0.20
2020,06,27,01,23,0.00
2020,06,27,01,24,0.00
2020,06,27,01,25,0.00
2020,06,27,01,26,0.00
2020,06,27,01,27,0.00
2020,06,27,01,28,0.00
2020,06,27,01,29,0.00
2020,06,27,01,30,0.00
2020,06,27,01,31,0.00
2020,06,27,01,32,0.30
2020,06,27,01,33,0.20
2020,06,27,01,34,0.00
2020,06,27,01,35,0.00
2020,06,27,01,36,0.00
2020,06,27,01,37,0.00
2020,06,27,01,38,1.00
2020,06,27,01,39,1.80
2020,06,27,01,40,0.30
2020,06,27,01,41,0.20
2020,06,27,01,42,0.00
2020,06,27,01,43,0.00
2020,06,27,01,44,0.20
2020,06,27,01,45,0.00
2020,06,27,01,46,0.00
2020,06,27,01,47,0.00
2020,06,27,01,48,0.10
2020,06,27,01,49,0.00
2020,06,27,01,50,0.00
2020,06,27,01,51,0.00
2020,06,27,01,52,1.60
2020,06,27,01,53,2.80
2020,06,27,01,54,1.70
2020,06,27,01,55,0.90
2020,06,27,01,56,1.20
2020,06,27,01,57,1.10
2020,06,27,01,58,2.20
2020,06,27,01,59,2.30
2020,06,27,02,00,3.30
2020,06,27,02,01,2.10
2020,06,27,02,02,0.90
2020,06,27,02,03,0.20
2020,06,27,02,04,0.40
2020,06,27,02,05,0.40
2020,06,27,02,06,1.90
2020,06,27,02,07,2.40
2020,06,27,02,08,1.60
2020,06,27,02,09,0.40
2020,06,27,02,10,0.00
2020,06,27,02,11,0.40
2020,06,27,02,12,1.10
2020,06,27,02,13,1.10
2020,06,27,02,14,1.00
2020,06,27,02,15,1.30
2020,06,27,02,16,2.10
2020,06,27,02,17,2.70
2020,06,27,02,18,0.70
2020,06,27,02,19,1.00
2020,06,27,02,20,3.80
2020,06,27,02,21,5.80
2020,06,27,02,22,5.20
2020,06,27,02,23,3.90
2020,06,27,02,24,2.20
2020,06,27,02,25,0.50
2020,06,27,02,26,0.10
2020,06,27,02,27,3.40
2020,06,27,02,28,1.20
2020,06,27,02,29,0.50
2020,06,27,02,30,0.50
2020,06,27,02,31,2.10
2020,06,27,02,32,4.50
2020,06,27,02,33,8.10
2020,06,27,02,34,6.40
2020,06,27,02,35,9.20
2020,06,27,02,36,13.60
2020,06,27,02,37,9.70
2020,06,27,02,38,8.30
2020,06,27,02,39,10.10
2020,06,27,02,40,16.50
2020,06,27,02,41,13.00
2020,06,27,02,42,11.80
2020,06,27,02,43,14.00
2020,06,27,02,44,13.10
2020,06,27,02,45,18.50
2020,06,27,02,46,12.30
2020,06,27,02,47,12.90
2020,06,27,02,48,8.90
2020,06,27,02,49,10.50
2020,06,27,02,50,11.90
2020,06,27,02,51,13.00
2020,06,27,02,52,13.30
2020,06,27,02,53,11.90
2020,06,27,02,54,19.10
2020,06,27,02,55,13.80
2020,06,27,02,56,14.90
2020,06,27,02,57,17.80
2020,06,27,02,58,13.50
2020,06,27,02,59,11.80
2020,06,27,03,00,11.90
2020,06,27,03,01,10.00
2020,06,27,03,02,12.60
2020,06,27,03,03,14.80
2020,06,27,03,04,12.00
2020,06,27,03,05,13.70
2020,06,27,03,06,19.00
2020,06,27,03,07,12.90
2020,06,27,03,08,11.80
2020,06,27,03,09,11.80
2020,06,27,03,10,20.80
2020,06,27,03,11,20.40
2020,06,27,03,12,14.80
2020,06,27,03,13,13.90
2020,06,27,03,14,13.60
2020,06,27,03,15,14.30
2020,06,27,03,16,15.00
2020,06,27,03,17,12.00
2020,06,27,03,18,17.30
2020,06,27,03,19,16.00
2020,06,27,03,20,13.00
2020,06,27,03,21,18.50
2020,06,27,03,22,14.20
2020,06,27,03,23,14.60
2020,06,27,03,24,17.30
2020,06,27,03,25,16.00
2020,06,27,03,26,14.90
2020,06,27,03,27,16.60
2020,06,27,03,28,16.30
2020,06,27,03,29,16.60
2020,06,27,03,30,15.30
2020,06,27,03,31,14.70
2020,06,27,03,32,12.90
2020,06,27,03,33,15.00
2020,06,27,03,34,16.20
2020,06,27,03,35,18.30
2020,06,27,03,36,15.80
2020,06,27,03,37,16.80
2020,06,27,03,38,12.00
2020,06,27,03,39,10.10
2020,06,27,03,40,9.70
2020,06,27,03,41,13.00
2020,06,27,03,42,11.80
2020,06,27,03,43,7.80
2020,06,27,03,44,8.40
2020,06,27,03,45,10.90
2020,06,27,03,46,12.20
2020,06,27,03,47,13.90
2020,06,27,03,48,11.50
2020,06,27,03,49,11.40
2020,06,27,03,50,7.80
2020,06,27,03,51,11.20
2020,06,27,03,52,14.60
2020,06,27,03,53,12.10
2020,06,27,03,54,14.20
2020,06,27,03,55,11.30
2020,06,27,03,56,12.80
2020,06,27,03,57,11.60
2020,06,27,03,58,13.50
2020,06,27,03,59,11.40
2020,06,27,04,00,10.00
2020,06,27,04,01,10.50
2020,06,27,04,02,14.50
2020,06,27,04,03,14.50
2020,06,27,04,04,15.80
2020,06,27,04,05,14.50
2020,06,27,04,06,11.90
2020,06,27,04,07,11.70
2020,06,27,04,08,9.40
2020,06,27,04,09,8.70
2020,06,27,04,10,9.30
2020,06,27,04,11,11.50
2020,06,27,04,12,11.50
2020,06,27,04,13,8.70
2020,06,27,04,14,16.70
2020,06,27,04,15,11.00
2020,06,27,04,16,11.30
2020,06,27,04,17,11.70
2020,06,27,04,18,11.00
2020,06,27,04,19,11.30
2020,06,27,04,20,15.50
2020,06,27,04,21,11.40
2020,06,27,04,22,12.30
2020,06,27,04,23,14.10
2020,06,27,04,24,9.00
2020,06,27,04,25,9.20
2020,06,27,04,26,11.80
2020,06,27,04,27,9.60
2020,06,27,04,28,13.90
2020,06,27,04,29,10.60
2020,06,27,04,30,12.20
2020,06,27,04,31,8.80
2020,06,27,04,32,11.50
2020,06,27,04,33,11.50
2020,06,27,04,34,7.30
2020,06,27,04,35,11.20
2020,06,27,04,36,12.30
2020,06,27,04,37,12.70
2020,06,27,04,38,10.90
2020,06,27,04,39,9.30
2020,06,27,04,40,11.00
2020,06,27,04,41,10.40
2020,06,27,04,42,12.30
2020,06,27,04,43,10.30
2020,06,27,04,44,10.10
2020,06,27,04,45,8.20
2020,06,27,04,46,8.40
2020,06,27,04,47,2.60
2020,06,27,04,48,5.70
2020,06,27,04,49,6.70
2020,06,27,04,50,8.10
2020,06,27,04,51,6.10
2020,06,27,04,52,7.40
2020,06,27,04,53,7.10
2020,06,27,04,54,8.90
2020,06,27,04,55,6.00
2020,06,27,04,56,6.30
2020,06,27,04,57,10.60
2020,06,27,04,58,9.50
2020,06,27,04,59,10.10
2020,06,27,05,00,11.70
2020,06,27,05,01,16.20
2020,06,27,05,02,11.00
2020,06,27,05,03,11.70
2020,06,27,05,04,11.90
2020,06,27,05,05,12.40
2020,06,27,05,06,10.80
2020,06,27,05,07,11.80
2020,06,27,05,08,10.20
2020,06,27,05,09,12.10
2020,06,27,05,10,9.20
2020,06,27,05,11,7.60
2020,06,27,05,12,9.10
2020,06,27,05,13,6.50
2020,06,27,05,14,5.80
2020,06,27,05,15,8.70
2020,06,27,05,16,8.80
2020,06,27,05,17,5.80
2020,06,27,05,18,7.20
2020,06,27,05,19,7.10
2020,06,27,05,20,8.00
2020,06,27,05,21,6.00
2020,06,27,05,22,8.10
2020,06,27,05,23,4.60
2020,06,27,05,24,8.70
2020,06,27,05,25,9.00
2020,06,27,05,26,6.40
2020,06,27,05,27,5.30
2020,06,27,05,28,3.20
2020,06,27,05,29,8.20
2020,06,27,05,30,8.20
2020,06,27,05,31,7.50
2020,06,27,05,32,10.00
2020,06,27,05,33,10.20
2020,06,27,05,34,9.30
2020,06,27,05,35,9.30
2020,06,27,05,36,9.10
2020,06,27,05,37,8.30
2020,06,27,05,38,9.30
2020,06,27,05,39,10.80
2020,06,27,05,40,9.20
2020,06,27,05,41,12.10
2020,06,27,05,42,12.80
2020,06,27,05,43,10.50
2020,06,27,05,44,11.40
2020,06,27,05,45,13.20
2020,06,27,05,46,13.50
2020,06,27,05,47,12.30
2020,06,27,05,48,11.90
2020,06,27,05,49,13.70
2020,06,27,05,50,16.00
2020,06,27,05,51,11.50
2020,06,27,05,52,12.20
2020,06,27,05,53,14.70
2020,06,27,05,54,12.00
2020,06,27,05,55,10.60
2020,06,27,05,56,13.40
2020,06,27,05,57,12.30
2020,06,27,05,58,12.00
2020,06,27,05,59,9.10
2020,06,27,06,00,13.60
2020,06,27,06,01,10.90
2020,06,27,06,02,14.20
2020,06,27,06,03,13.00
2020,06,27,06,04,10.50
2020,06,27,06,05,10.30
2020,06,27,06,06,10.80
2020,06,27,06,07,8.60
2020,06,27,06,08,14.40
2020,06,27,06,09,12.60
2020,06,27,06,10,9.70
2020,06,27,06,11,11.50
2020,06,27,06,12,8.70
2020,06,27,06,13,10.50
2020,06,27,06,14,13.40
2020,06,27,06,15,9.20
2020,06,27,06,16,15.00
2020,06,27,06,17,17.80
2020,06,27,06,18,11.60
2020,06,27,06,19,10.90
2020,06,27,06,20,12.90
2020,06,27,06,21,13.00
2020,06,27,06,22,9.80
2020,06,27,06,23,12.00
2020,06,27,06,24,14.10
2020,06,27,06,25,12.80
2020,06,27,06,26,13.20
2020,06,27,06,27,8.20
2020,06,27,06,28,11.60
2020,06,27,06,29,10.70
2020,06,27,06,30,16.40
2020,06,27,06,31,16.20
2020,06,27,06,32,14.50
2020,06,27,06,33,16.90
2020,06,27,06,34,19.30
2020,06,27,06,35,17.50
2020,06,27,06,36,15.60
2020,06,27,06,37,15.20
2020,06,27,06,38,11.20
2020,06,27,06,39,14.20
2020,06,27,06,40,11.90
2020,06,27,06,41,11.00
2020,06,27,06,42,9.80
2020,06,27,06,43,11.40
2020,06,27,06,44,9.20
2020,06,27,06,45,13.00
2020,06,27,06,46,13.40
2020,06,27,06,47,9.50
2020,06,27,06,48,7.90
2020,06,27,06,49,13.50
2020,06,27,06,50,9.20
2020,06,27,06,51,7.50
2020,06,27,06,52,9.70
2020,06,27,06,53,15.30
2020,06,27,06,54,6.40
2020,06,27,06,55,9.30
2020,06,27,06,56,11.70
2020,06,27,06,57,9.50
2020,06,27,06,58,9.50
2020,06,27,06,59,11.10
2020,06,27,07,00,7.70
2020,06,27,07,01,11.30
2020,06,27,07,02,10.00
2020,06,27,07,03,5.90
2020,06,27,07,04,10.00
2020,06,27,07,05,13.40
2020,06,27,07,06,14.10
2020,06,27,07,07,12.40
2020,06,27,07,08,11.70
2020,06,27,07,09,10.70
2020,06,27,07,10,7.80
2020,06,27,07,11,16.60
2020,06,27,07,12,14.30
2020,06,27,07,13,8.50
2020,06,27,07,14,7.20
2020,06,27,07,15,12.30
2020,06,27,07,16,15.10
2020,06,27,07,17,10.60
2020,06,27,07,18,13.40
2020,06,27,07,19,15.60
2020,06,27,07,20,12.10
2020,06,27,07,21,11.70
2020,06,27,07,22,10.90
2020,06,27,07,23,13.50
2020,06,27,07,24,9.80
2020,06,27,07,25,12.00
2020,06,27,07,26,9.50
2020,06,27,07,27,14.20
2020,06,27,07,28,15.00
2020,06,27,07,29,18.70
2020,06,27,07,30,10.40
2020,06,27,07,31,12.60
2020,06,27,07,32,12.70
2020,06,27,07,33,17.90
2020,06,27,07,34,16.40
2020,06,27,07,35,14.20
2020,06,27,07,36,13.30
2020,06,27,07,37,11.30
2020,06,27,07,38,9.30
2020,06,27,07,39,9.50
2020,06,27,07,40,12.10
2020,06,27,07,41,10.70
2020,06,27,07,42,9.70
2020,06,27,07,43,10.50
2020,06,27,07,44,11.80
2020,06,27,07,45,14.70
2020,06,27,07,46,8.90
2020,06,27,07,47,11.90
2020,06,27,07,48,14.10
2020,06,27,07,49,8.90
2020,06,27,07,50,10.10
2020,06,27,07,51,9.30
2020,06,27,07,52,8.20
2020,06,27,07,53,8.20
2020,06,27,07,54,15.50
2020,06,27,07,55,11.80
2020,06,27,07,56,6.80
2020,06,27,07,57,9.80
2020,06,27,07,58,12.20
2020,06,27,07,59,13.40
2020,06,27,08,00,10.60
2020,06,27,08,01,14.30
2020,06,27,08,02,12.20
2020,06,27,08,03,10.90
2020,06,27,08,04,9.40
2020,06,27,08,05,13.80
2020,06,27,08,06,12.10
2020,06,27,08,07,8.50
2020,06,27,08,08,15.30
2020,06,27,08,09,12.10
2020,06,27,08,10,11.20
2020,06,27,08,11,6.70
2020,06,27,08,12,6.20
2020,06,27,08,13,7.30
2020,06,27,08,14,14.20
2020,06,27,08,15,12.60
2020,06,27,08,16,12.40
2020,06,27,08,17,13.60
2020,06,27,08,18,17.50
2020,06,27,08,19,12.60
2020,06,27,08,20,16.60
2020,06,27,08,21,9.80
2020,06,27,08,22,8.70
2020,06,27,08,23,9.50
2020,06,27,08,24,5.40
2020,06,27,08,25,5.00
2020,06,27,08,26,9.80
2020,06,27,08,27,7.50
2020,06,27,08,28,5.20
2020,06,27,08,29,12.10
2020,06,27,08,30,4.50
2020,06,27,08,31,7.60
2020,06,27,08,32,10.30
2020,06,27,08,33,10.10
2020,06,27,08,34,11.40
2020,06,27,08,35,15.40
2020,06,27,08,36,13.20
2020,06,27,08,37,18.60
2020,06,27,08,38,11.90
2020,06,27,08,39,10.00
2020,06,27,08,40,12.90
2020,06,27,08,41,9.30
2020,06,27,08,42,9.20
2020,06,27,08,43,11.50
2020,06,27,08,44,13.30
2020,06,27,08,45,7.90
2020,06,27,08,46,10.80
2020,06,27,08,47,15.90
2020,06,27,08,48,12.50
2020,06,27,08,49,14.20
2020,06,27,08,50,11.20
2020,06,27,08,51,16.70
2020,06,27,08,52,16.90
2020,06,27,08,53,11.70
2020,06,27,08,54,13.70
2020,06,27,08,55,18.40
2020,06,27,08,56,19.30
2020,06,27,08,57,10.90
2020,06,27,08,58,17.90
2020,06,27,08,59,10.30
2020,06,27,09,00,11.20
2020,06,27,09,01,9.80
2020,06,27,09,02,14.40
2020,06,27,09,03,10.20
2020,06,27,09,04,10.10
2020,06,27,09,05,13.30
2020,06,27,09,06,17.50
2020,06,27,09,07,14.20
2020,06,27,09,08,15.40
2020,06,27,09,09,13.80
2020,06,27,09,10,9.00
2020,06,27,09,11,6.80
2020,06,27,09,12,9.70
2020,06,27,09,13,11.30
2020,06,27,09,14,8.40
2020,06,27,09,15,12.90
2020,06,27,09,16,12.00
2020,06,27,09,17,7.40
2020,06,27,09,18,11.20
2020,06,27,09,19,12.40
2020,06,27,09,20,11.90
2020,06,27,09,21,8.40
2020,06,27,09,22,11.60
2020,06,27,09,23,10.10
2020,06,27,09,24,12.30
2020,06,27,09,25,9.30
2020,06,27,09,26,6.10
2020,06,27,09,27,8.20
2020,06,27,09,28,11.30
2020,06,27,09,29,13.40
2020,06,27,09,30,11.80
2020,06,27,09,31,8.30
2020,06,27,09,32,8.20
2020,06,27,09,33,7.30
2020,06,27,09,34,8.60
2020,06,27,09,35,11.30
2020,06,27,09,36,6.70
2020,06,27,09,37,11.90
2020,06,27,09,38,12.60
2020,06,27,09,39,9.10
2020,06,27,09,40,17.40
2020,06,27,09,41,10.30
2020,06,27,09,42,11.50
2020,06,27,09,43,18.80
2020,06,27,09,44,7.30
2020,06,27,09,45,13.90
2020,06,27,09,46,16.40
2020,06,27,09,47,18.30
2020,06,27,09,48,13.30
2020,06,27,09,49,17.90
2020,06,27,09,50,17.90
2020,06,27,09,51,22.90
2020,06,27,09,52,12.10
2020,06,27,09,53,13.30
2020,06,27,09,54,15.60
2020,06,27,09,55,15.60
2020,06,27,09,56,19.20
2020,06,27,09,57,17.20
2020,06,27,09,58,15.00
2020,06,27,09,59,19.70
2020,06,27,10,00,16.10
2020,06,27,10,01,11.20
2020,06,27,10,02,17.50
2020,06,27,10,03,14.80
2020,06,27,10,04,13.60
2020,06,27,10,05,11.80
2020,06,27,10,06,11.10
2020,06,27,10,07,10.50
2020,06,27,10,08,18.80
2020,06,27,10,09,19.00
2020,06,27,10,10,18.90
2020,06,27,10,11,22.40
2020,06,27,10,12,23.00
2020,06,27,10,13,19.80
2020,06,27,10,14,12.50
2020,06,27,10,15,15.60
2020,06,27,10,16,15.00
2020,06,27,10,17,19.10
2020,06,27,10,18,18.60
2020,06,27,10,19,15.80
2020,06,27,10,20,11.20
2020,06,27,10,21,10.90
2020,06,27,10,22,12.70
2020,06,27,10,23,11.10
2020,06,27,10,24,10.70
2020,06,27,10,25,15.40
2020,06,27,10,26,14.70
2020,06,27,10,27,13.30
2020,06,27,10,28,16.40
2020,06,27,10,29,24.20
2020,06,27,10,30,10.80
2020,06,27,10,31,18.60
2020,06,27,10,32,15.50
2020,06,27,10,33,14.10
2020,06,27,10,34,13.30
2020,06,27,10,35,17.80
2020,06,27,10,36,14.80
2020,06,27,10,37,12.30
2020,06,27,10,38,17.20
2020,06,27,10,39,15.40
2020,06,27,10,40,10.80
2020,06,27,10,41,7.00
2020,06,27,10,42,13.90
2020,06,27,10,43,11.80
2020,06,27,10,44,14.00
2020,06,27,10,45,10.50
2020,06,27,10,46,13.00
2020,06,27,10,47,10.50
2020,06,27,10,48,10.10
2020,06,27,10,49,9.60
2020,06,27,10,50,13.70
2020,06,27,10,51,14.60
2020,06,27,10,52,13.60
2020,06,27,10,53,11.00
2020,06,27,10,54,19.90
2020,06,27,10,55,17.40
2020,06,27,10,56,14.90
2020,06,27,10,57,16.00
2020,06,27,10,58,15.50
2020,06,27,10,59,15.80
2020,06,27,11,00,19.40
2020,06,27,11,01,20.10
2020,06,27,11,02,17.90
2020,06,27,11,03,20.00
2020,06,27,11,04,13.90
2020,06,27,11,05,12.80
2020,06,27,11,06,10.10
2020,06,27,11,07,15.50
2020,06,27,11,08,14.60
2020,06,27,11,09,14.60
2020,06,27,11,10,12.70
2020,06,27,11,11,12.20
2020,06,27,11,12,11.60
2020,06,27,11,13,7.20
2020,06,27,11,14,6.60
2020,06,27,11,15,12.80
2020,06,27,11,16,12.60
2020,06,27,11,17,13.00
2020,06,27,11,18,15.50
2020,06,27,11,19,17.90
2020,06,27,11,20,18.90
2020,06,27,11,21,16.90
2020,06,27,11,22,17.50
2020,06,27,11,23,13.60
2020,06,27,11,24,12.00
2020,06,27,11,25,10.50
2020,06,27,11,26,9.20
2020,06,27,11,27,4.10
2020,06,27,11,28,8.60
2020,06,27,11,29,23.50
2020,06,27,11,30,22.70
2020,06,27,11,31,17.40
2020,06,27,11,32,28.60
2020,06,27,11,33,19.60
2020,06,27,11,34,18.70
2020,06,27,11,35,29.90
2020,06,27,11,36,20.50
2020,06,27,11,37,27.50
2020,06,27,11,38,22.50
2020,06,27,11,39,21.00
2020,06,27,11,40,31.70
2020,06,27,11,41,22.00
2020,06,27,11,42,21.20
2020,06,27,11,43,18.90
2020,06,27,11,44,19.50
2020,06,27,11,45,19.20
2020,06,27,11,46,16.40
2020,06,27,11,47,15.40
2020,06,27,11,48,17.20
2020,06,27,11,49,14.80
2020,06,27,11,50,14.40
2020,06,27,11,51,11.70
2020,06,27,11,52,12.80
2020,06,27,11,53,9.10
2020,06,27,11,54,13.40
2020,06,27,11,55,16.80
2020,06,27,11,56,18.70
2020,06,27,11,57,16.50
2020,06,27,11,58,14.20
2020,06,27,11,59,18.50
2020,06,27,12,00,19.10
2020,06,27,12,01,21.40
2020,06,27,12,02,10.70
2020,06,27,12,03,10.70
2020,06,27,12,04,9.80
2020,06,27,12,05,17.60
2020,06,27,12,06,15.20
2020,06,27,12,07,7.70
2020,06,27,12,08,9.00
2020,06,27,12,09,9.80
2020,06,27,12,10,17.90
2020,06,27,12,11,16.60
2020,06,27,12,12,10.40
2020,06,27,12,13,9.30
2020,06,27,12,14,9.10
2020,06,27,12,15,13.40
2020,06,27,12,16,16.50
2020,06,27,12,17,8.40
2020,06,27,12,18,19.70
2020,06,27,12,19,20.80
2020,06,27,12,20,18.20
2020,06,27,12,21,17.40
2020,06,27,12,22,17.90
2020,06,27,12,23,13.30
2020,06,27,12,24,20.40
2020,06,27,12,25,16.80
2020,06,27,12,26,12.00
2020,06,27,12,27,9.40
2020,06,27,12,28,21.60
2020,06,27,12,29,18.30
2020,06,27,12,30,13.00
2020,06,27,12,31,16.30
2020,06,27,12,32,23.70
2020,06,27,12,33,16.20
2020,06,27,12,34,13.70
2020,06,27,12,35,11.70
2020,06,27,12,36,14.50
2020,06,27,12,37,15.20
2020,06,27,12,38,17.30
2020,06,27,12,39,13.80
2020,06,27,12,40,20.60
2020,06,27,12,41,22.80
2020,06,27,12,42,20.30
2020,06,27,12,43,12.70
2020,06,27,12,44,13.20
2020,06,27,12,45,20.90
2020,06,27,12,46,15.30
2020,06,27,12,47,10.10
2020,06,27,12,48,11.90
2020,06,27,12,49,14.40
2020,06,27,12,50,12.80
2020,06,27,12,51,9.00
2020,06,27,12,52,13.10
2020,06,27,12,53,19.10
2020,06,27,12,54,20.60
2020,06,27,12,55,16.70
2020,06,27,12,56,14.20
2020,06,27,12,57,17.40
2020,06,27,12,58,16.80
2020,06,27,12,59,9.70
2020,06,27,13,00,20.90
2020,06,27,13,01,20.20
2020,06,27,13,02,20.40
2020,06,27,13,03,17.80
2020,06,27,13,04,21.50
2020,06,27,13,05,21.90
2020,06,27,13,06,15.00
2020,06,27,13,07,16.80
2020,06,27,13,08,22.00
2020,06,27,13,09,17.40
2020,06,27,13,10,15.70
2020,06,27,13,11,20.30
2020,06,27,13,12,18.20
2020,06,27,13,13,20.50
2020,06,27,13,14,22.80
2020,06,27,13,15,15.80
2020,06,27,13,16,15.30
2020,06,27,13,17,11.30
2020,06,27,13,18,13.00
2020,06,27,13,19,6.10
2020,06,27,13,20,10.80
2020,06,27,13,21,7.40
2020,06,27,13,22,9.20
2020,06,27,13,23,9.90
2020,06,27,13,24,8.50
2020,06,27,13,25,14.20
2020,06,27,13,26,23.30
2020,06,27,13,27,19.20
2020,06,27,13,28,16.70
2020,06,27,13,29,21.60
2020,06,27,13,30,27.60
2020,06,27,13,31,17.90
2020,06,27,13,32,17.10
2020,06,27,13,33,21.30
2020,06,27,13,34,15.40
2020,06,27,13,35,20.20
2020,06,27,13,36,16.20
2020,06,27,13,37,14.10
2020,06,27,13,38,17.60
2020,06,27,13,39,15.20
2020,06,27,13,40,21.20
2020,06,27,13,41,20.40
2020,06,27,13,42,28.80
2020,06,27,13,43,22.00
2020,06,27,13,44,16.50
2020,06,27,13,45,15.40
2020,06,27,13,46,20.60
2020,06,27,13,47,23.30
2020,06,27,13,48,17.30
2020,06,27,13,49,11.70
2020,06,27,13,50,16.60
2020,06,27,13,51,15.30
2020,06,27,13,52,20.10
2020,06,27,13,53,14.90
2020,06,27,13,54,11.30
2020,06,27,13,55,11.80
2020,06,27,13,56,14.90
2020,06,27,13,57,17.90
2020,06,27,13,58,23.70
2020,06,27,13,59,17.30
2020,06,27,14,00,15.00
2020,06,27,14,01,21.20
2020,06,27,14,02,20.20
2020,06,27,14,03,27.30
2020,06,27,14,04,23.40
2020,06,27,14,05,22.50
2020,06,27,14,06,14.10
2020,06,27,14,07,18.40
2020,06,27,14,08,26.40
2020,06,27,14,09,23.00
2020,06,27,14,10,17.90
2020,06,27,14,11,14.20
2020,06,27,14,12,25.40
2020,06,27,14,13,22.80
2020,06,27,14,14,19.60
2020,06,27,14,15,19.50
2020,06,27,14,16,14.20
2020,06,27,14,17,15.30
2020,06,27,14,18,27.80
2020,06,27,14,19,27.50
2020,06,27,14,20,19.60
2020,06,27,14,21,24.10
2020,06,27,14,22,21.60
2020,06,27,14,23,22.40
2020,06,27,14,24,21.40
2020,06,27,14,25,21.60
2020,06,27,14,26,26.30
2020,06,27,14,27,16.60
2020,06,27,14,28,16.60
2020,06,27,14,29,22.60
2020,06,27,14,30,18.90
2020,06,27,14,31,12.10
2020,06,27,14,32,17.40
2020,06,27,14,33,20.70
2020,06,27,14,34,19.40
2020,06,27,14,35,19.80
2020,06,27,14,36,20.70
2020,06,27,14,37,19.60
2020,06,27,14,38,25.00
2020,06,27,14,39,18.30
2020,06,27,14,40,16.40
2020,06,27,14,41,18.80
2020,06,27,14,42,16.70
2020,06,27,14,43,27.40
2020,06,27,14,44,24.00
2020,06,27,14,45,22.90
2020,06,27,14,46,20.10
2020,06,27,14,47,9.60
2020,06,27,14,48,14.20
2020,06,27,14,49,22.50
2020,06,27,14,50,13.50
2020,06,27,14,51,17.10
2020,06,27,14,52,14.40
2020,06,27,14,53,10.80
2020,06,27,14,54,10.20
2020,06,27,14,55,10.70
2020,06,27,14,56,11.90
2020,06,27,14,57,20.60
2020,06,27,14,58,15.20
2020,06,27,14,59,15.40
2020,06,27,15,00,13.90
2020,06,27,15,01,17.10
2020,06,27,15,02,14.70
2020,06,27,15,03,16.60
2020,06,27,15,04,15.20
2020,06,27,15,05,13.30
2020,06,27,15,06,20.00
2020,06,27,15,07,19.60
2020,06,27,15,08,12.20
2020,06,27,15,09,12.30
2020,06,27,15,10,17.60
2020,06,27,15,11,8.50
2020,06,27,15,12,10.90
2020,06,27,15,13,12.20
2020,06,27,15,14,8.50
2020,06,27,15,15,19.40
2020,06,27,15,16,22.10
2020,06,27,15,17,14.00
2020,06,27,15,18,22.40
2020,06,27,15,19,15.90
2020,06,27,15,20,17.60
2020,06,27,15,21,13.40
2020,06,27,15,22,12.20
2020,06,27,15,23,16.60
2020,06,27,15,24,15.00
2020,06,27,15,25,26.00
2020,06,27,15,26,14.30
2020,06,27,15,27,8.70
2020,06,27,15,28,11.80
2020,06,27,15,29,8.20
2020,06,27,15,30,3.60
2020,06,27,15,31,11.10
2020,06,27,15,32,9.20
2020,06,27,15,33,6.90
2020,06,27,15,34,18.70
2020,06,27,15,35,15.90
2020,06,27,15,36,17.00
2020,06,27,15,37,15.30
2020,06,27,15,38,17.90
2020,06,27,15,39,15.10
2020,06,27,15,40,15.30
2020,06,27,15,41,22.80
2020,06,27,15,42,18.70
2020,06,27,15,43,15.50
2020,06,27,15,44,17.00
2020,06,27,15,45,16.90
2020,06,27,15,46,12.70
2020,06,27,15,47,14.40
2020,06,27,15,48,19.70
2020,06,27,15,49,17.20
2020,06,27,15,50,9.70
2020,06,27,15,51,11.90
2020,06,27,15,52,14.70
2020,06,27,15,53,14.60
2020,06,27,15,54,15.30
2020,06,27,15,55,15.40
2020,06,27,15,56,12.00
2020,06,27,15,57,14.90
2020,06,27,15,58,19.40
2020,06,27,15,59,19.20
2020,06,27,16,00,24.10
2020,06,27,16,01,16.60
2020,06,27,16,02,11.30
2020,06,27,16,03,20.80
2020,06,27,16,04,14.60
2020,06,27,16,05,20.80
2020,06,27,16,06,12.80
2020,06,27,16,07,14.80
2020,06,27,16,08,17.30
2020,06,27,16,09,22.30
2020,06,27,16,10,15.70
2020,06,27,16,11,22.00
2020,06,27,16,12,16.70
2020,06,27,16,13,24.60
2020,06,27,16,14,21.40
2020,06,27,16,15,21.00
2020,06,27,16,16,23.00
2020,06,27,16,17,15.20
2020,06,27,16,18,20.80
2020,06,27,16,19,19.80
2020,06,27,16,20,18.20
2020,06,27,16,21,18.40
2020,06,27,16,22,13.80
2020,06,27,16,23,17.10
2020,06,27,16,24,18.50
2020,06,27,16,25,16.70
2020,06,27,16,26,15.70
2020,06,27,16,27,18.90
2020,06,27,16,28,18.50
2020,06,27,16,29,10.90
2020,06,27,16,30,15.40
2020,06,27,16,31,16.10
2020,06,27,16,32,13.00
2020,06,27,16,33,18.50
2020,06,27,16,34,23.10
2020,06,27,16,35,12.50
2020,06,27,16,36,19.20
2020,06,27,16,37,16.70
2020,06,27,16,38,18.30
2020,06,27,16,39,19.00
2020,06,27,16,40,13.40
2020,06,27,16,41,13.00
2020,06,27,16,42,17.00
2020,06,27,16,43,12.60
2020,06,27,16,44,15.60
2020,06,27,16,45,18.40
2020,06,27,16,46,8.80
2020,06,27,16,47,12.60
2020,06,27,16,48,3.90
2020,06,27,16,49,9.70
2020,06,27,16,50,7.20
2020,06,27,16,51,8.60
2020,06,27,16,52,10.00
2020,06,27,16,53,4.70
2020,06,27,16,54,17.40
2020,06,27,16,55,13.20
2020,06,27,16,56,7.40
2020,06,27,16,57,8.80
2020,06,27,16,58,15.70
2020,06,27,16,59,10.70
2020,06,27,17,00,12.00
2020,06,27,17,01,13.00
2020,06,27,17,02,12.00
2020,06,27,17,03,15.90
2020,06,27,17,04,9.10
2020,06,27,17,05,11.20
2020,06,27,17,06,14.00
2020,06,27,17,07,12.70
2020,06,27,17,08,15.00
2020,06,27,17,09,15.20
2020,06,27,17,10,16.40
2020,06,27,17,11,17.30
2020,06,27,17,12,17.50
2020,06,27,17,13,8.30
2020,06,27,17,14,11.90
2020,06,27,17,15,10.10
2020,06,27,17,16,7.10
2020,06,27,17,17,5.30
2020,06,27,17,18,7.50
2020,06,27,17,19,9.50
2020,06,27,17,20,7.70
2020,06,27,17,21,9.70
2020,06,27,17,22,9.10
2020,06,27,17,23,6.90
2020,06,27,17,24,6.20
2020,06,27,17,25,9.00
2020,06,27,17,26,5.30
2020,06,27,17,27,4.90
2020,06,27,17,28,11.00
2020,06,27,17,29,7.80
2020,06,27,17,30,6.00
2020,06,27,17,31,8.50
2020,06,27,17,32,10.20
2020,06,27,17,33,9.50
2020,06,27,17,34,9.00